When you browse on this site, cookies collect data to enhance your experience and personalize the content and advertising you see.
Visit our Privacy Policy to learn more. By continuing to use the site, you agree to this use of cookies and data.
  • In Hungary
  • List of Countries
  • For 7 days
  • Water Temperature
  • Weather Map
  • News
  • Weather Widgets
  • user-avatar
    Login

    Hourly Weather Nampan

    Today, 11 December, Wednesday

    Time Temperature Precipitation Wind Pressure Humidity
    00:00 +11°C° 0 mm 0 mps 674 mmHg 89%
    01:00 +11°C° 0 mm 0 mps 674 mmHg 89%
    02:00 +10°C° 0 mm 0 mps 674 mmHg 90%
    03:00 +10°C° 0 mm 0 mps 674 mmHg 90%
    04:00 +10°C° 0 mm 0 mps 674 mmHg 90%
    05:00 +10°C° 0 mm 0 mps 674 mmHg 91%
    06:00 +9°C° 0 mm 0 mps 675 mmHg 91%
    07:00 +12°C° 0 mm 0 mps 676 mmHg 80%
    08:00 +18°C° 0 mm 1 mps 677 mmHg 69%
    09:00 +21°C° 0 mm 1 mps 678 mmHg 58%
    10:00 +22°C° 0 mm 1 mps 678 mmHg 53%
    11:00 +23°C° 0 mm 2 mps 677 mmHg 47%
    12:00 +24°C° 0 mm 2 mps 677 mmHg 42%
    13:00 +23°C° 0 mm 2 mps 676 mmHg 44%
    14:00 +23°C° 0 mm 2 mps 676 mmHg 46%
    15:00 +23°C° 0 mm 2 mps 675 mmHg 48%
    16:00 +20°C° 0 mm 1 mps 675 mmHg 59%
    17:00 +18°C° 0 mm 1 mps 675 mmHg 70%
    18:00 +13°C° 0 mm 0 mps 674 mmHg 81%
    19:00 +13°C° 0 mm 0 mps 675 mmHg 82%
    20:00 +12°C° 0 mm 0 mps 675 mmHg 83%
    21:00 +12°C° 0 mm 0 mps 676 mmHg 84%
    22:00 +12°C° 0 mm 0 mps 675 mmHg 85%
    23:00 +11°C° 0 mm 0 mps 675 mmHg 85%

    Tomorrow, 12 December, Thursday

    Time Temperature Precipitation Wind Pressure Humidity
    00:00 +11°C° 0 mm 0 mps 675 mmHg 86%
    01:00 +11°C° 0 mm 0 mps 675 mmHg 87%
    02:00 +10°C° 0 mm 0 mps 675 mmHg 88%
    03:00 +10°C° 0 mm 0 mps 674 mmHg 89%
    04:00 +10°C° 0 mm 0 mps 675 mmHg 89%
    05:00 +10°C° 0 mm 0 mps 675 mmHg 89%
    06:00 +10°C° 0 mm 0 mps 676 mmHg 90%
    07:00 +13°C° 0 mm 0 mps 677 mmHg 79%
    08:00 +16°C° 0 mm 0 mps 678 mmHg 68%
    09:00 +21°C° 0 mm 1 mps 679 mmHg 57%
    10:00 +22°C° 0 mm 1 mps 679 mmHg 53%
    11:00 +23°C° 0 mm 1 mps 678 mmHg 48%
    12:00 +25°C° 0 mm 1 mps 678 mmHg 43%
    13:00 +24°C° 0 mm 1 mps 677 mmHg 44%
    14:00 +24°C° 0 mm 1 mps 677 mmHg 46%
    15:00 +24°C° 0 mm 1 mps 676 mmHg 48%
    16:00 +21°C° 0 mm 1 mps 676 mmHg 58%
    17:00 +17°C° 0 mm 0 mps 676 mmHg 68%
    18:00 +14°C° 0 mm 0 mps 676 mmHg 78%
    19:00 +13°C° 0 mm 0 mps 676 mmHg 80%
    20:00 +13°C° 0 mm 0 mps 676 mmHg 82%
    21:00 +12°C° 0 mm 0 mps 676 mmHg 84%
    22:00 +12°C° 0 mm 0 mps 676 mmHg 85%
    23:00 +12°C° 0 mm 0 mps 676 mmHg 86%

    Day after tomorrow, 13 December, Friday

    Time Temperature Precipitation Wind Pressure Humidity
    00:00 +11°C° 0 mm 0 mps 676 mmHg 86%
    01:00 +11°C° 0 mm 0 mps 676 mmHg 87%
    02:00 +11°C° 0 mm 0 mps 676 mmHg 87%
    03:00 +11°C° 0 mm 0 mps 675 mmHg 88%
    04:00 +11°C° 0 mm 0 mps 676 mmHg 88%
    05:00 +10°C° 0 mm 0 mps 676 mmHg 88%
    06:00 +10°C° 0 mm 0 mps 677 mmHg 88%
    07:00 +13°C° 0 mm 0 mps 678 mmHg 78%
    08:00 +19°C° 0 mm 1 mps 679 mmHg 68%
    09:00 +22°C° 0 mm 1 mps 680 mmHg 57%
    10:00 +23°C° 0 mm 1 mps 680 mmHg 52%
    11:00 +24°C° 0 mm 1 mps 679 mmHg 47%
    12:00 +26°C° 0 mm 1 mps 679 mmHg 42%
    13:00 +25°C° 0 mm 1 mps 678 mmHg 44%
    14:00 +25°C° 0 mm 1 mps 678 mmHg 46%
    15:00 +25°C° 0 mm 1 mps 677 mmHg 48%
    16:00 +20°C° 0 mm 0 mps 677 mmHg 57%
    17:00 +17°C° 0 mm 0 mps 677 mmHg 67%
    18:00 +15°C° 0 mm 0 mps 676 mmHg 77%
    19:00 +14°C° 0 mm 0 mps 677 mmHg 79%
    20:00 +14°C° 0 mm 0 mps 677 mmHg 81%
    21:00 +13°C° 0 mm 0 mps 678 mmHg 83%
    22:00 +13°C° 0 mm 0 mps 677 mmHg 84%
    23:00 +13°C° 0 mm 0 mps 677 mmHg 85%

    14 December, Saturday

    Time Temperature Precipitation Wind Pressure Humidity
    00:00 +12°C° 0 mm 0 mps 677 mmHg 86%
    01:00 +12°C° 0 mm 0 mps 677 mmHg 86%
    02:00 +12°C° 0 mm 0 mps 677 mmHg 87%
    03:00 +12°C° 0 mm 0 mps 677 mmHg 88%
    04:00 +11°C° 0 mm 0 mps 677 mmHg 87%
    05:00 +11°C° 0 mm 0 mps 677 mmHg 87%
    06:00 +11°C° 0 mm 0 mps 677 mmHg 87%
    07:00 +14°C° 0 mm 0 mps 678 mmHg 77%
    08:00 +18°C° 0 mm 0 mps 679 mmHg 66%
    09:00 +23°C° 0 mm 1 mps 680 mmHg 56%
    10:00 +24°C° 0 mm 1 mps 680 mmHg 50%
    11:00 +25°C° 0 mm 1 mps 680 mmHg 45%
    12:00 +27°C° 0 mm 1 mps 679 mmHg 40%
    13:00 +26°C° 0 mm 1 mps 679 mmHg 42%
    14:00 +26°C° 0 mm 1 mps 678 mmHg 44%
    15:00 +26°C° 0 mm 1 mps 677 mmHg 46%
    16:00 +23°C° 0 mm 1 mps 677 mmHg 57%
    17:00 +18°C° 0 mm 0 mps 677 mmHg 67%
    18:00 +15°C° 0 mm 0 mps 676 mmHg 78%
    19:00 +15°C° 0 mm 0 mps 676 mmHg 80%
    20:00 +14°C° 0 mm 0 mps 677 mmHg 82%
    21:00 +14°C° 0 mm 0 mps 677 mmHg 83%
    22:00 +14°C° 0 mm 0 mps 677 mmHg 84%
    23:00 +13°C° 0 mm 0 mps 677 mmHg 85%

    15 December, Sunday

    Time Temperature Precipitation Wind Pressure Humidity
    00:00 +13°C° 0 mm 0 mps 677 mmHg 86%
    01:00 +13°C° 0 mm 0 mps 677 mmHg 86%
    02:00 +12°C° 0 mm 0 mps 676 mmHg 86%
    03:00 +12°C° 0 mm 0 mps 676 mmHg 87%
    04:00 +12°C° 0 mm 0 mps 676 mmHg 87%
    05:00 +12°C° 0 mm 0 mps 677 mmHg 87%
    06:00 +12°C° 0 mm 0 mps 677 mmHg 87%
    07:00 +15°C° 0 mm 0 mps 678 mmHg 76%
    08:00 +18°C° 0 mm 0 mps 679 mmHg 65%
    09:00 +23°C° 0 mm 1 mps 680 mmHg 54%
    10:00 +24°C° 0 mm 1 mps 679 mmHg 48%
    11:00 +26°C° 0 mm 1 mps 679 mmHg 43%
    12:00 +27°C° 0 mm 1 mps 678 mmHg 37%
    13:00 +27°C° 0 mm 1 mps 678 mmHg 39%
    14:00 +26°C° 0 mm 1 mps 677 mmHg 41%
    15:00 +26°C° 0 mm 1 mps 677 mmHg 43%
    16:00 +23°C° 0 mm 1 mps 676 mmHg 55%
    17:00 +18°C° 0 mm 0 mps 676 mmHg 66%
    18:00 +16°C° 0 mm 0 mps 675 mmHg 78%
    19:00 +15°C° 0 mm 0 mps 676 mmHg 79%
    20:00 +15°C° 0 mm 0 mps 676 mmHg 80%
    21:00 +14°C° 0 mm 0 mps 677 mmHg 82%
    22:00 +14°C° 0 mm 0 mps 676 mmHg 82%
    23:00 +14°C° 0 mm 0 mps 676 mmHg 82%

    16 December, Monday

    Time Temperature Precipitation Wind Pressure Humidity
    00:00 +13°C° 0 mm 0 mps 676 mmHg 81%
    01:00 +13°C° 0 mm 0 mps 676 mmHg 82%
    02:00 +13°C° 0 mm 0 mps 676 mmHg 82%
    03:00 +12°C° 0 mm 0 mps 675 mmHg 82%
    04:00 +12°C° 0 mm 0 mps 676 mmHg 81%
    05:00 +12°C° 0 mm 0 mps 676 mmHg 80%
    06:00 +11°C° 0 mm 0 mps 676 mmHg 78%
    07:00 +15°C° 0 mm 0 mps 677 mmHg 69%
    08:00 +18°C° 0 mm 0 mps 678 mmHg 59%
    09:00 +23°C° 0 mm 1 mps 679 mmHg 49%
    10:00 +25°C° 0 mm 1 mps 679 mmHg 42%
    11:00 +26°C° 0 mm 1 mps 678 mmHg 35%
    12:00 +28°C° 0 mm 2 mps 678 mmHg 27%
    13:00 +27°C° 0 mm 2 mps 677 mmHg 30%
    14:00 +27°C° 0 mm 2 mps 677 mmHg 33%
    15:00 +27°C° 0 mm 2 mps 676 mmHg 35%
    16:00 +23°C° 0 mm 1 mps 676 mmHg 43%
    17:00 +20°C° 0 mm 1 mps 675 mmHg 50%
    18:00 +15°C° 0 mm 0 mps 675 mmHg 58%
    19:00 +15°C° 0 mm 0 mps 675 mmHg 57%
    20:00 +14°C° 0 mm 0 mps 676 mmHg 57%
    21:00 +14°C° 0 mm 0 mps 676 mmHg 57%
    22:00 +13°C° 0 mm 0 mps 676 mmHg 56%
    23:00 +13°C° 0 mm 0 mps 676 mmHg 55%
    Show more